Regional Weather Roundup
Issued by NWS Newport/Morehead, NC

Current Version | Previous Version | Text Only | Print | Product List | Glossary On
Versions: 1 2 3 4 5 6 7 8 9 10 11 12 13 14 15 16 17 18 19 20 21 22 23 24 25 26 27 28 29 30 31 32 33 34 35 36 37 38 39 40 41 42 43 44 45 46 47 48 49 50
000
ASUS42 KMHX 081013
RWRMHX
WEATHER ROUNDUP FOR EASTERN NORTH CAROLINA
NATIONAL WEATHER SERVICE NEWPORT/MOREHEAD CITY NC
500 AM EST THU DEC 08 2016

NOTE: "FAIR" INDICATES FEW OR NO CLOUDS BELOW 12,000 FEET
WITH NO SIGNIFICANT WEATHER AND/OR OBSTRUCTIONS TO VISIBILITY

NCZ015>017-031-032-045>047-102-103-081100-
NORTH COAST

CITY           SKY/WX    TMP DP  RH WIND       PRES   REMARKS
EDENTON        CLOUDY    46  44  93 CALM      30.06R
ELIZABETH CITY CLOUDY    44  43  96 CALM      30.05S
KITTY HAWK     CLOUDY    45  45 100 CALM      30.02F
MANTEO         MOCLDY    41  41 100 CALM      30.04F

$$

NCZ045>047-081-094-103-104-081100-
CENTRAL COAST

CITY           SKY/WX    TMP DP  RH WIND       PRES   REMARKS
FRISCO         NOT AVBL

$$

NCZ095-097-098-100-101-081100-
SOUTHERN COAST

CITY           SKY/WX    TMP DP  RH WIND       PRES   REMARKS
BEAUFORT       CLOUDY    51  49  92 E3        30.04F
CEDAR ISLAND   NOT AVBL
JACKSONVILLE   CLOUDY    48  47  96 CALM      30.03F
PINEY ISLAND   CLOUDY   N/A N/A N/A E3        30.04F
WILMINGTON     MOCLDY    48  48 100 SW6       30.05S


$$

NCZ011>013-027>030-043-044-078>080-089-090>093-098-081100-
COASTAL PLAIN

CITY           SKY/WX    TMP DP  RH WIND       PRES   REMARKS
AHOSKIE        CLOUDY    45  43  95 CALM      30.05R
CLINTON        CLOUDY    51  50  97 CALM      30.04R
ELIZABETHTOWN  CLEAR     47  47 100 SW3       30.04S FOG
GOLDSBORO      CLOUDY    49  49  99 CALM      30.02R
GREENVILLE     CLOUDY    46  46 100 CALM      30.06S
HAVELOCK       CLOUDY    50  47  89 CALM      30.05F
KENANSVILLE    NOT AVBL
KINSTON        CLOUDY    49  47  91 S5        30.04S
NEW BERN       CLOUDY    50  49  96 CALM      30.04F
RICHLANDS      CLEAR     43  43 100 CALM      30.04S
ROCKY MOUNT    CLOUDY    47  46  97 SE3       30.03S
WASHINGTON     CLOUDY    47  45  94 SE3       30.04F
WHITEVILLE     CLOUDY    48  47  97 CALM      30.05R FOG

$$

AMZ130-135-150-152-154-156-158-170-250-252-270-ANZ085-086-088-633-658-670-081100-
MARINE OBSERVATIONS

STATION/POSITION TIME  TEMP    WIND        PRES    WAVE   SWELL
                       AIR SEA DIR/SP/G            HT/PER HT/PER
                 (UTC) (F)     (DEG/KT/KT) (MB)    (FT/S) (FT/S)
CHESAPEAKE LIGHT NOT AVBL
64 E VA BEACH    0950   51 58  300/  8/ 10 1016.9    5/10   5/10
DUCK             0948   49 53  360/  2/  3 1016.4
2 E DUCK         NOT AVBL
OREGON INLET     0942   47 56  260/  2/  3 1017.3
13E OREGON INLT  NOT AVBL
HATTERAS CG      0948   50 60   60/  1/  1 1017.3
DIAMOND BUOY     0950   55 78  260/  4/ 10 1017.8    5/10   5/10
CAPE LOOKOUT     1000   55      30/  4/  5 1016.8
BEAUFORT LAB     0948   51 55   50/  3/  5 1016.1
30 SE NEW RVR IN 0908   59 71  280/  2/  6 1017.5
30 SE NEW RVR IN NOT AVBL
27 SE WRIGHTSVLE 0908   60 69  310/  4/  6 1017.0
5 SE WRIGHTSVLE  0908   55 62  250/  8/ 12 1017.2
225 S CAPE HAT   0950   71 73  300/  6/  8 1017.4    6/10   5/10
41 SE CHARLESTON 0950   63 74  350/  8/ 10 1017.4    2/ 7   2/ 7

$$




USA.gov is the U.S. government's official web portal to all federal, state and local government web resources and services.